Location: Ergnies
(50.0854°N, 2.0375°E)
Time: 06:32:36
(UTC+00:00)

Cosmos 2184 Rocket - Pass Details

Date: 14 January 2026
Orbit: 958 x 1001 km, 82.9° (Epoch: 10 February)

Event Time Altitude Azimuth Distance (km) Brightness Sun altitude
Rises 06:36:53 0° 214° (SW) 3,656 6.9 -10.7°
Reaches altitude 10° 06:39:35 10° 223° (SW) 2,707 6.1 -10.2°
Maximum altitude 06:45:18 38° 290° (WNW) 1,441 4.4 -9.4°
Drops below altitude 10° 06:51:01 10° 357° (N) 2,706 6.1 -8.5°
Sets 06:53:44 0° 6° (N) 3,654 6.8 -8.1°
